Location: ?
(35.4214°N, 139.3011°E)
Time: 05:19:19
(UTC+00:00)

Gbstr 26 Del rocket - Visible Passes

Search period start: 31 October 2020 00:00
Search period end: 10 November 2020 00:00
Orbit: 493 x 1264 km, 51.8° (Epoch: 30 October)

Date Brightness Start Highest point End Pass type
(mag) Time Alt. Az. Time Alt. Az. Time Alt. Az.
04 Nov 6.0 20:15:21 10° SSE 20:16:41 12° SE 20:18:02 10° ESE visible
05 Nov 5.6 20:09:23 10° SSE 20:11:48 16° SE 20:14:14 10° E visible
06 Nov 5.1 20:03:57 10° S 20:06:57 23° SE 20:09:57 10° ENE visible
07 Nov 4.4 19:58:44 10° SSW 20:02:06 32° SE 20:05:29 10° ENE visible
08 Nov 3.6 19:53:41 10° SSW 19:57:17 45° SE 20:00:54 10° ENE visible
09 Nov 2.9 19:49:31 15° SW 19:52:30 66° SE 19:56:13 10° NE visible
